FW7016 Weather Reports


Display with metric or nautical units.
time (UTC)temp
F
wind
direction
speed
MPH
gust
MPH
rain 1hr
in
rain 24hr
in
rain mn
in
humidity
%
barometer
mb
20260902222725 85 194 12.0 18.0 0.00 0.00 0.00 32 1016.8
20260902222225 84 189 12.0 15.0 0.00 0.00 0.00 31 1016.7
20260902221720 84 179 21.0 24.0 0.00 0.00 0.00 29 1016.7
20260902221219 85 196 12.0 18.0 0.00 0.00 0.00 31 1016.8
20260902220715 85 185 11.0 15.0 0.00 0.00 0.00 28 1016.8
20260902220214 84 181 11.0 17.0 0.00 0.00 0.00 28 1016.8
20260902215710 84 209 17.0 20.0 0.00 0.00 0.00 29 1016.9
20260902215205 84 204 11.0 17.0 0.00 0.00 0.00 31 1016.8
20260902214700 85 209 15.0 18.0 0.00 0.00 0.00 31 1017.0
20260902214159 84 168 9.0 13.0 0.00 0.00 0.00 28 1017.0
20260902213655 84 189 10.0 20.0 0.00 0.00 0.00 28 1017.3
20260902213154 84 228 7.0 15.0 0.00 0.00 0.00 34 1017.0
20260902212649 84 204 11.0 15.0 0.00 0.00 0.00 32 1017.3
20260902212146 85 219 7.0 9.0 0.00 0.00 0.00 30 1017.5
20260902211643 85 170 10.0 18.0 0.00 0.00 0.00 29 1017.5
20260902211143 85 170 13.0 17.0 0.00 0.00 0.00 27 1017.7
20260902210642 84 170 16.0 17.0 0.00 0.00 0.00 26 1017.7
20260902210137 82 183 5.0 10.0 0.00 0.00 0.00 29 1017.7
20260902205636 82 222 8.0 9.0 0.00 0.00 0.00 31 1017.5
20260902205131 84 223 16.0 18.0 0.00 0.00 0.00 29 1017.7
20260902204626 83 203 8.0 15.0 0.00 0.00 0.00 33 1017.9
20260902204121 84 206 12.0 15.0 0.00 0.00 0.00 32 1018.0
20260902203617 84 214 7.0 11.0 0.00 0.00 0.00 28 1017.7
20260902203116 83 184 11.0 16.0 0.00 0.00 0.00 29 1018.4
20260902202612 84 210 12.0 15.0 0.00 0.00 0.00 32 1018.2
20260902202108 83 168 7.0 10.0 0.00 0.00 0.00 27 1018.3
20260902201604 83 251 9.0 14.0 0.00 0.00 0.00 31 1018.2
20260902201103 83 230 9.0 15.0 0.00 0.00 0.00 32 1018.2
20260902200558 84 206 8.0 17.0 0.00 0.00 0.00 32 1018.2
20260902200054 83 182 7.0 13.0 0.00 0.00 0.00 31 1018.4
20260902195550 83 221 9.0 13.0 0.00 0.00 0.00 33 1018.4
20260902195048 84 179 15.0 18.0 0.00 0.00 0.00 28 1018.4
20260902194548 84 218 9.0 17.0 0.00 0.00 0.00 33 1018.7
20260902194043 83 159 13.0 16.0 0.00 0.00 0.00 28 1018.6
20260902193540 84 199 11.0 16.0 0.00 0.00 0.00 28 1018.6
20260902193039 84 175 13.0 16.0 0.00 0.00 0.00 28 1018.7
20260902192538 82 189 10.0 16.0 0.00 0.00 0.00 27 1018.8
20260902192036 82 220 12.0 18.0 0.00 0.00 0.00 32 1018.8
20260902191532 83 236 11.0 18.0 0.00 0.00 0.00 30 1019.1
20260902191026 83 194 10.0 16.0 0.00 0.00 0.00 30 1019.0
20260902190522 83 218 13.0 18.0 0.00 0.00 0.00 29 1018.8
20260902190018 83 217 10.0 18.0 0.00 0.00 0.00 31 1019.0
20260902185513 83 189 9.0 14.0 0.00 0.00 0.00 29 1019.0
20260902185009 81 197 6.0 15.0 0.00 0.00 0.00 31 1019.1
20260902184504 82 221 18.0 21.0 0.00 0.00 0.00 33 1019.3
20260902183959 82 240 9.0 13.0 0.00 0.00 0.00 36 1019.4
20260902183455 81 235 12.0 20.0 0.00 0.00 0.00 32 1019.4
20260902182951 82 221 11.0 13.0 0.00 0.00 0.00 34 1019.4
20260902182447 82 238 10.0 13.0 0.00 0.00 0.00 36 1019.5
20260902181943 82 215 8.0 11.0 0.00 0.00 0.00 34 1019.5
20260902181438 82 199 12.0 16.0 0.00 0.00 0.00 31 1019.5
20260902180933 82 243 11.0 13.0 0.00 0.00 0.00 35 1019.6
20260902180428 83 223 12.0 15.0 0.00 0.00 0.00 30 1019.6
20260902175924 82 222 3.0 10.0 0.00 0.00 0.00 31 1019.7
20260902175418 82 257 12.0 14.0 0.00 0.00 0.00 32 1019.6
20260902174914 81 226 8.0 15.0 0.00 0.00 0.00 30 1019.9
20260902174405 82 209 4.0 7.0 0.00 0.00 0.00 33 1019.7
20260902173901 81 206 0.0 1.0 0.00 0.00 0.00 30 1019.9
20260902173400 81 212 4.0 10.0 0.00 0.00 0.00 31 1020.3
20260902172855 81 241 7.0 11.0 0.00 0.00 0.00 32 1019.9
20260902172354 81 280 8.0 10.0 0.00 0.00 0.00 32 1020.1
20260902171849 81 235 8.0 10.0 0.00 0.00 0.00 33 1020.4
20260902171344 81 284 11.0 13.0 0.00 0.00 0.00 32 1020.2
20260902170841 81 252 14.0 18.0 0.00 0.00 0.00 34 1020.6
20260902170336 80 248 8.0 11.0 0.00 0.00 0.00 32 1020.3
20260902165832 80 199 6.0 17.0 0.00 0.00 0.00 34 1020.1
20260902165331 81 248 12.0 21.0 0.00 0.00 0.00 33 1020.4
20260902164825 81 229 8.0 11.0 0.00 0.00 0.00 36 1020.7
20260902164320 80 272 9.0 11.0 0.00 0.00 0.00 32 1020.6
20260902163814 80 272 10.0 14.0 0.00 0.00 0.00 34 1020.6
20260902163309 79 232 7.0 10.0 0.00 0.00 0.00 37 1020.3
20260902162807 78 252 9.0 11.0 0.00 0.00 0.00 36 1020.6
20260902162306 79 25 12.0 16.0 0.00 0.00 0.00 35 1020.4
20260902161756 78 285 13.0 18.0 0.00 0.00 0.00 35 1020.2
20260902161252 76 273 7.0 9.0 0.00 0.00 0.00 40 1020.6
20260902160748 75 248 5.0 10.0 0.00 0.00 0.00 40 1020.3
20260902160243 75 247 7.0 11.0 0.00 0.00 0.00 39 1020.4
20260902155741 76 260 5.0 13.0 0.00 0.00 0.00 40 1020.6
20260902155240 76 259 7.0 11.0 0.00 0.00 0.00 40 1020.3
20260902154735 77 249 12.0 17.0 0.00 0.00 0.00 38 1020.3
20260902154230 77 263 11.0 14.0 0.00 0.00 0.00 38 1020.4
20260902153724 77 265 7.0 13.0 0.00 0.00 0.00 38 1020.6
20260902153223 77 264 9.0 14.0 0.00 0.00 0.00 39 1020.4
20260902152720 76 288 7.0 14.0 0.00 0.00 0.00 39 1020.2
20260902152215 76 252 9.0 14.0 0.00 0.00 0.00 41 1020.3
20260902151711 76 293 11.0 14.0 0.00 0.00 0.00 41 1020.1
20260902151205 75 4 7.0 11.0 0.00 0.00 0.00 41 1020.3
20260902150701 73 231 6.0 14.0 0.00 0.00 0.00 44 1020.3
20260902150156 73 312 9.0 11.0 0.00 0.00 0.00 44 1020.2
20260902145655 73 290 7.0 13.0 0.00 0.00 0.00 44 1020.4
20260902145155 72 300 10.0 15.0 0.00 0.00 0.00 45 1020.3
20260902144652 71 304 8.0 13.0 0.00 0.00 0.00 45 1020.3
20260902144147 71 305 12.0 16.0 0.00 0.00 0.00 45 1020.2
20260902143642 71 310 15.0 18.0 0.00 0.00 0.00 47 1020.0
20260902143137 70 310 11.0 17.0 0.00 0.00 0.00 47 1020.1
20260902142632 70 306 9.0 24.0 0.00 0.00 0.00 47 1020.1
20260902142129 69 298 12.0 15.0 0.00 0.00 0.00 50 1020.1
20260902141628 68 264 11.0 16.0 0.00 0.00 0.00 51 1020.2
20260902141124 67 256 11.0 13.0 0.00 0.00 0.00 53 1020.3
20260902140619 65 185 8.0 11.0 0.00 0.00 0.00 56 1020.4
20260902140114 64 263 7.0 10.0 0.00 0.00 0.00 59 1020.1
20260902135613 63 286 9.0 13.0 0.00 0.00 0.00 59 1020.4
20260902135108 63 248 1.0 8.0 0.00 0.00 0.00 62 1020.3
20260902134604 62 194 0.0 6.0 0.00 0.00 0.00 61 1020.2
20260902134104 60 199 1.0 9.0 0.00 0.00 0.00 62 1020.4
20260902133558 60 227 3.0 6.0 0.00 0.00 0.00 65 1020.1
20260902133058 59 250 2.0 8.0 0.00 0.00 0.00 65 1020.1
20260902132554 59 239 5.0 7.0 0.00 0.00 0.00 64 1020.6
20260902132049 57 242 4.0 5.0 0.00 0.00 0.00 67 1020.4
20260902131545 55 241 4.0 6.0 0.00 0.00 0.00 71 1020.4
20260902131039 54 208 3.0 3.0 0.00 0.00 0.00 74 1020.6
20260902130535 55 190 1.0 2.0 0.00 0.00 0.00 74 1020.1
20260902130030 56 196 0.0 2.0 0.00 0.00 0.00 69 1020.0
20260902125526 55 236 2.0 2.0 0.00 0.00 0.00 68 1020.1
20260902125021 54 189 0.0 1.0 0.00 0.00 0.00 69 1019.9
20260902124519 54 247 3.0 3.0 0.00 0.00 0.00 71 1020.2
20260902124019 54 268 3.0 3.0 0.00 0.00 0.00 70 1019.7
20260902123515 53 267 3.0 5.0 0.00 0.00 0.00 71 1020.0
20260902123014 53 270 3.0 5.0 0.00 0.00 0.00 72 1020.0
20260902122509 53 287 4.0 5.0 0.00 0.00 0.00 73 1019.9
20260902122004 53 277 5.0 6.0 0.00 0.00 0.00 73 1020.0
20260902121459 53 306 4.0 5.0 0.00 0.00 0.00 73 1019.9
20260902120954 53 284 4.0 5.0 0.00 0.00 0.00 73 1019.7
20260902120451 53 308 5.0 6.0 0.00 0.00 0.00 74 1019.9
20260902115950 54 301 5.0 5.0 0.00 0.00 0.00 73 1020.1
20260902115446 55 295 5.0 7.0 0.00 0.00 0.00 69 1019.6
20260902114942 54 280 6.0 7.0 0.00 0.00 0.00 71 1019.7
20260902114438 55 172 5.0 6.0 0.00 0.00 0.00 71 1019.9
20260902113933 55 11 6.0 7.0 0.00 0.00 0.00 72 1019.6
20260902113428 55 203 4.0 6.0 0.00 0.00 0.00 70 1019.6
20260902112928 55 252 1.0 2.0 0.00 0.00 0.00 72 1019.7
20260902112424 56 239 2.0 5.0 0.00 0.00 0.00 71 1019.7
20260902111920 56 277 3.0 5.0 0.00 0.00 0.00 71 1019.7
20260902111416 55 201 1.0 2.0 0.00 0.00 0.00 72 1019.7
20260902110912 56 232 3.0 3.0 0.00 0.00 0.00 72 1019.9
20260902110407 56 280 3.0 3.0 0.00 0.00 0.00 71 1019.7
20260902105902 57 252 3.0 3.0 0.00 0.00 0.00 70 1019.7
20260902105356 57 258 4.0 6.0 0.00 0.00 0.00 69 1019.6
20260902104851 57 231 2.0 3.0 0.00 0.00 0.00 69 1019.7
20260902104348 57 224 3.0 5.0 0.00 0.00 0.00 69 1019.7
20260902103847 58 229 3.0 5.0 0.00 0.00 0.00 69 1019.9
20260902103342 58 251 4.0 5.0 0.00 0.00 0.00 67 1019.9
20260902102837 59 267 3.0 5.0 0.00 0.00 0.00 67 1019.9
20260902102330 61 276 3.0 3.0 0.00 0.00 0.00 63 1019.7
20260902101825 62 224 2.0 3.0 0.00 0.00 0.00 59 1019.9
20260902101324 63 242 2.0 3.0 0.00 0.00 0.00 58 1019.9
20260902100819 64 219 2.0 5.0 0.00 0.00 0.00 58 1019.9
20260902100318 64 249 3.0 5.0 0.00 0.00 0.00 56 1019.7
20260902095814 63 248 5.0 7.0 0.00 0.00 0.00 56 1020.0
20260902095313 60 269 4.0 7.0 0.00 0.00 0.00 63 1019.7
20260902094809 57 231 5.0 6.0 0.00 0.00 0.00 68 1019.6
20260902094305 57 284 5.0 7.0 0.00 0.00 0.00 71 1019.9
20260902093804 60 233 5.0 7.0 0.00 0.00 0.00 66 1020.0
20260902093259 60 273 5.0 6.0 0.00 0.00 0.00 65 1019.7
20260902092758 58 271 6.0 9.0 0.00 0.00 0.00 67 1020.0
20260902092254 56 295 7.0 9.0 0.00 0.00 0.00 71 1020.0
20260902091753 57 282 5.0 6.0 0.00 0.00 0.00 71 1020.0
20260902091249 57 247 2.0 5.0 0.00 0.00 0.00 70 1019.7
20260902090745 57 277 3.0 7.0 0.00 0.00 0.00 71 1019.6
20260902090244 57 287 8.0 10.0 0.00 0.00 0.00 71 1019.9
20260902085739 56 293 6.0 9.0 0.00 0.00 0.00 71 1019.9
20260902085234 56 266 6.0 8.0 0.00 0.00 0.00 72 1019.7
20260902084730 55 222 3.0 7.0 0.00 0.00 0.00 72 1019.7
20260902084226 55 298 3.0 5.0 0.00 0.00 0.00 72 1019.9
20260902083720 57 184 1.0 3.0 0.00 0.00 0.00 72 1020.1
20260902083221 57 227 4.0 7.0 0.00 0.00 0.00 70 1019.9
20260902082716 54 300 4.0 5.0 0.00 0.00 0.00 75 1020.0
20260902082212 55 218 4.0 6.0 0.00 0.00 0.00 75 1020.1
20260902081708 55 236 3.0 6.0 0.00 0.00 0.00 73 1019.9
20260902081203 55 246 3.0 6.0 0.00 0.00 0.00 75 1019.9
20260902080657 54 217 3.0 6.0 0.00 0.00 0.00 76 1019.9
20260902080155 54 222 6.0 7.0 0.00 0.00 0.00 76 1020.2
20260902075654 54 227 5.0 7.0 0.00 0.00 0.00 76 1020.0
20260902075150 54 202 5.0 6.0 0.00 0.00 0.00 76 1020.1
20260902074645 53 218 4.0 6.0 0.00 0.00 0.00 77 1020.0
20260902074140 53 206 3.0 5.0 0.00 0.00 0.00 79 1020.0
20260902073636 54 195 3.0 3.0 0.00 0.00 0.00 76 1020.1
20260902073132 54 195 4.0 8.0 0.00 0.00 0.00 75 1020.2
20260902072628 55 210 4.0 5.0 0.00 0.00 0.00 75 1020.1
20260902072124 55 192 3.0 3.0 0.00 0.00 0.00 74 1020.0
20260902071619 57 201 0.0 0.0 0.00 0.00 0.00 71 1019.9
20260902071115 57 207 1.0 1.0 0.00 0.00 0.00 69 1019.9
20260902070610 56 197 1.0 2.0 0.00 0.00 0.00 71 1019.9
20260902070105 57 193 0.0 2.0 0.00 0.00 0.00 70 1020.1
20260902065604 57 199 1.0 1.0 0.00 0.00 0.00 71 1020.0
20260902065100 58 206 2.0 2.0 0.00 0.00 0.00 69 1019.9
20260902064556 58 211 1.0 2.0 0.00 0.00 0.00 67 1020.0
20260902064050 56 276 3.0 3.0 0.00 0.00 0.00 69 1019.7
20260902063550 55 194 0.0 0.0 0.00 0.00 0.00 74 1020.1
20260902063045 56 194 1.0 2.0 0.00 0.00 0.00 73 1020.0
20260902062544 57 199 0.0 1.0 0.00 0.00 0.00 69 1019.9
20260902062040 59 204 1.0 3.0 0.00 0.00 0.00 67 1019.9
20260902061539 59 243 2.0 2.0 0.00 0.00 0.00 65 1019.7
20260902061035 59 277 3.0 3.0 0.00 0.00 0.00 64 1019.6
20260902060532 57 228 3.0 3.0 0.00 0.00 0.00 68 1019.6
20260902060028 57 209 3.0 3.0 0.00 0.00 0.00 72 1020.1
20260902055523 57 260 3.0 5.0 0.00 0.00 0.00 67 1019.7
20260902055019 57 288 5.0 6.0 0.00 0.00 0.00 68 1019.9
20260902054519 59 312 7.0 7.0 0.00 0.00 0.00 66 1020.1
20260902054015 59 298 5.0 6.0 0.00 0.00 0.00 62 1020.2
20260902053510 58 259 3.0 3.0 0.00 0.00 0.00 64 1020.0
20260902053009 58 281 4.0 5.0 0.00 0.00 0.00 65 1019.9
20260902052504 59 319 3.0 3.0 0.00 0.00 0.00 66 1020.0
20260902052000 60 208 0.0 1.0 0.00 0.00 0.00 63 1020.0
20260902051459 60 212 3.0 5.0 0.00 0.00 0.00 61 1019.9
20260902050958 60 258 3.0 7.0 0.00 0.00 0.00 61 1019.7
20260902050453 60 263 5.0 7.0 0.00 0.00 0.00 62 1019.9
20260902045948 59 299 4.0 6.0 0.00 0.00 0.00 62 1019.9
20260902045443 60 290 5.0 6.0 0.00 0.00 0.00 63 1019.6
20260902044940 61 277 6.0 8.0 0.00 0.00 0.00 61 1019.6
20260902044435 62 264 5.0 7.0 0.00 0.00 0.00 59 1019.9
20260902043930 62 273 4.0 5.0 0.00 0.00 0.00 59 1020.0
20260902043425 62 292 4.0 6.0 0.00 0.00 0.00 57 1020.0
20260902042920 61 252 3.0 7.0 0.00 0.00 0.00 60 1019.9
20260902042414 61 281 6.0 7.0 0.00 0.00 0.00 59 1019.9
20260902041910 62 279 5.0 6.0 0.00 0.00 0.00 58 1019.9
20260902041409 64 283 5.0 6.0 0.00 0.00 0.00 55 1019.7
20260902040908 66 291 4.0 7.0 0.00 0.00 0.00 52 1020.0
20260902040403 66 282 6.0 7.0 0.00 0.00 0.00 51 1019.7
20260902035902 66 245 5.0 7.0 0.00 0.00 0.00 50 1019.9
20260902035352 63 194 5.0 9.0 0.00 0.00 0.00 54 1019.7
20260902034851 63 269 3.0 6.0 0.00 0.00 0.00 58 1019.4
20260902034346 64 169 3.0 6.0 0.00 0.00 0.00 56 1019.5
20260902033844 65 276 7.0 9.0 0.00 0.00 0.00 56 1019.6
20260902033340 66 227 3.0 5.0 0.00 0.00 0.00 53 1019.9
20260902032838 68 229 4.0 8.0 0.00 0.00 0.00 51 1020.0
20260902032339 68 273 5.0 7.0 0.00 0.00 0.00 48 1019.7
20260902031833 64 219 5.0 7.0 0.00 0.00 0.00 52 1019.5
20260902031330 68 223 4.0 7.0 0.00 0.00 0.00 58 1019.4
20260902030824 69 261 6.0 8.0 0.00 0.00 0.00 49 1019.1
20260902030319 70 256 0.0 3.0 0.00 0.00 0.00 48 1019.6
20260902025818 69 252 4.0 7.0 0.00 0.00 0.00 47 1019.4
20260902025314 69 252 6.0 7.0 0.00 0.00 0.00 50 1019.3
20260902024808 71 263 8.0 10.0 0.00 0.00 0.00 48 1019.7
20260902024304 70 261 7.0 9.0 0.00 0.00 0.00 47 1019.3
20260902023759 67 267 7.0 8.0 0.00 0.00 0.00 54 1019.0
20260902023255 66 249 5.0 7.0 0.00 0.00 0.00 54 1019.1
20260902022753 66 235 7.0 9.0 0.00 0.00 0.00 60 1019.1
20260902022244 68 240 5.0 7.0 0.00 0.00 0.00 54 1019.0
20260902021739 69 253 5.0 7.0 0.00 0.00 0.00 52 1018.6
20260902021239 69 242 5.0 6.0 0.00 0.00 0.00 50 1018.7
20260902020735 71 224 5.0 8.0 0.00 0.00 0.00 47 1019.1
20260902020231 71 227 6.0 8.0 0.00 0.00 0.00 47 1018.7
20260902015726 72 223 6.0 8.0 0.00 0.00 0.00 45 1018.8
20260902015223 72 225 6.0 8.0 0.00 0.00 0.00 44 1018.8
20260902014718 72 247 6.0 8.0 0.00 0.00 0.00 44 1018.8
20260902014214 71 233 5.0 8.0 0.00 0.00 0.00 46 1018.4
20260902013712 71 232 6.0 7.0 0.00 0.00 0.00 47 1018.6
20260902013208 72 221 5.0 6.0 0.00 0.00 0.00 47 1018.8
20260902012704 72 216 5.0 7.0 0.00 0.00 0.00 48 1018.4
20260902012200 72 231 4.0 6.0 0.00 0.00 0.00 49 1018.7
20260902011655 73 217 3.0 5.0 0.00 0.00 0.00 50 1018.8
20260902011154 75 228 2.0 5.0 0.00 0.00 0.00 45 1018.6
20260902010654 74 214 0.0 2.0 0.00 0.00 0.00 45 1018.8
20260902010150 73 208 3.0 5.0 0.00 0.00 0.00 47 1018.8
20260902005648 74 223 5.0 6.0 0.00 0.00 0.00 50 1018.8
20260902005144 76 210 3.0 5.0 0.00 0.00 0.00 50 1018.7
20260902004643 76 209 2.0 3.0 0.00 0.00 0.00 47 1018.9
20260902004138 75 221 3.0 5.0 0.00 0.00 0.00 49 1018.9
20260902003634 75 222 3.0 5.0 0.00 0.00 0.00 49 1019.0
20260902003129 76 222 0.0 0.0 0.00 0.00 0.00 50 1019.1
20260902002619 77 216 3.0 5.0 0.00 0.00 0.00 40 1018.7
20260902002113 77 222 3.0 6.0 0.00 0.00 0.00 40 1018.9
20260902001608 78 235 5.0 8.0 0.00 0.00 0.00 36 1019.0
20260902001103 77 254 7.0 10.0 0.00 0.00 0.00 38 1019.1
20260902000558 75 226 9.0 21.0 0.00 0.00 0.00 42 1019.1
20260902000054 75 268 12.0 16.0 0.00 0.00 0.00 47 1019.0
20260901235553 76 228 7.0 9.0 0.00 0.00 0.00 48 1018.6
20260901235049 78 204 6.0 8.0 0.00 0.00 0.00 42 1018.7
20260901234547 77 199 6.0 8.0 0.00 0.00 0.00 42 1018.7
20260901234043 76 195 6.0 8.0 0.00 0.00 0.00 45 1018.6
20260901233543 77 209 5.0 8.0 0.00 0.00 0.00 45 1018.4
20260901233039 76 201 7.0 11.0 0.00 0.00 0.00 45 1018.6
20260901232534 77 217 7.0 8.0 0.00 0.00 0.00 46 1018.7
20260901232029 81 213 11.0 15.0 0.00 0.00 0.00 42 1018.7
20260901231525 81 208 8.0 13.0 0.00 0.00 0.00 40 1018.8
20260901231022 80 212 8.0 9.0 0.00 0.00 0.00 41 1018.8
20260901230521 80 241 8.0 11.0 0.00 0.00 0.00 42 1018.7
20260901230017 80 213 7.0 10.0 0.00 0.00 0.00 39 1018.6
20260901225512 81 223 9.0 11.0 0.00 0.00 0.00 41 1018.7
20260901225006 82 211 6.0 9.0 0.00 0.00 0.00 39 1018.8
20260901224502 81 222 5.0 11.0 0.00 0.00 0.00 39 1018.9
20260901223958 80 209 7.0 8.0 0.00 0.00 0.00 35 1018.7
20260901223454 79 218 5.0 7.0 0.00 0.00 0.00 45 1019.0